TimePDT,TemperatureF,Dew PointF,Humidity,Sea Level PressureIn,VisibilityMPH,Wind Direction,Wind SpeedMPH,Gust SpeedMPH,PrecipitationIn,Events,Conditions,WindDirDegrees,DateUTC
12:56 AM,57.0,42.1,57,29.90,10.0,West,12.7,-,N/A,,Clear,270,2012-10-11 07:56:00
1:56 AM,55.9,42.1,60,29.89,10.0,WSW,15.0,-,N/A,,Clear,250,2012-10-11 08:56:00
2:56 AM,55.0,42.1,62,29.88,10.0,North,-9999.0,-,N/A,,Clear,0,2012-10-11 09:56:00
3:56 AM,55.0,41.0,59,29.88,10.0,SW,13.8,-,N/A,,Clear,220,2012-10-11 10:56:00
4:56 AM,54.0,42.1,64,29.87,10.0,WSW,12.7,-,N/A,,Clear,240,2012-10-11 11:56:00
5:56 AM,50.0,41.0,71,29.90,10.0,West,8.1,-,N/A,,Clear,280,2012-10-11 12:56:00
6:56 AM,50.0,42.1,74,29.91,10.0,West,10.4,-,N/A,,Mostly Cloudy,280,2012-10-11 13:56:00
7:56 AM,53.1,43.0,69,29.91,10.0,West,9.2,-,N/A,,Mostly Cloudy,260,2012-10-11 14:56:00
8:56 AM,57.0,44.1,62,29.92,10.0,West,11.5,-,N/A,,Mostly Cloudy,260,2012-10-11 15:56:00
9:56 AM,59.0,42.1,53,29.92,10.0,SSW,10.4,-,N/A,,Clear,210,2012-10-11 16:56:00
10:56 AM,62.1,39.0,43,29.90,10.0,WSW,11.5,-,N/A,,Mostly Cloudy,250,2012-10-11 17:56:00
11:56 AM,64.0,39.9,41,29.90,10.0,SSW,16.1,20.7,N/A,,Mostly Cloudy,210,2012-10-11 18:56:00
12:56 PM,63.0,41.0,45,29.89,10.0,WSW,13.8,-,N/A,,Clear,250,2012-10-11 19:56:00
1:16 PM,62.6,39.2,42,29.90,10.0,SW,8.1,-,N/A,,Mostly Cloudy,220,2012-10-11 20:16:00
1:56 PM,64.0,39.9,41,29.87,10.0,SSW,13.8,-,N/A,Thunderstorm,Mostly Cloudy,210,2012-10-11 20:56:00
2:56 PM,62.1,39.9,44,29.88,10.0,SSW,17.3,-,N/A,Thunderstorm,Mostly Cloudy,210,2012-10-11 21:56:00
3:56 PM,60.1,41.0,49,29.89,10.0,SSW,16.1,-,N/A,Thunderstorm,Mostly Cloudy,210,2012-10-11 22:56:00
4:56 PM,57.0,41.0,55,29.90,10.0,West,15.0,-,N/A,Thunderstorm,Mostly Cloudy,260,2012-10-11 23:56:00
5:56 PM,57.0,41.0,55,29.90,10.0,WSW,13.8,-,N/A,Thunderstorm,Overcast,240,2012-10-12 00:56:00
6:56 PM,54.0,43.0,66,29.91,10.0,SW,6.9,-,N/A,Thunderstorm,Clear,230,2012-10-12 01:56:00
7:56 PM,53.1,42.1,66,29.93,10.0,WSW,12.7,-,N/A,Thunderstorm,Clear,250,2012-10-12 02:56:00
8:56 PM,53.1,42.1,66,29.93,10.0,SW,10.4,-,N/A,Thunderstorm,Clear,230,2012-10-12 03:56:00
9:56 PM,52.0,42.1,69,29.95,10.0,SW,8.1,-,N/A,,Partly Cloudy,230,2012-10-12 04:56:00
10:56 PM,52.0,42.1,69,29.95,10.0,WSW,11.5,-,N/A,,Clear,240,2012-10-12 05:56:00
11:56 PM,52.0,43.0,71,29.95,10.0,WSW,11.5,-,N/A,,Clear,240,2012-10-12 06:56:00